STPSAT-7

导读

根据公开信息显示,NORAD编号68630对应STPSAT-7是由美国空间测试计划(Space Test Program,STP)主导开发的技术试验卫星。该卫星旨在验证新型航天技术与空间环境探测载荷,为后续战术航天应用积累数据。 它被部署于近地轨道,主要承担新型传感器、空间态势感知设备的在轨测试任务,服务于美国军方空间技术研发需求。STPSAT系列卫星一贯聚焦前沿航天技术演示验证,STPSAT-7延续这一定位,推动小型卫星平台技术与空间监测能力发展。 *注:公开渠道对NORAD 68630的详细披露信息有限,以上为基于STP项目背景和卫星编号的合理梳理。*

Basic Information
目录编号:
68630
目录名称:
STPSAT-7
国际标识:
2026-074D
轨道中心:
EARTH
卫星名称:
STPSAT-7
卫星全名:
STPSAT-7
卫星状态:
在轨 (已飞行151 天)
发射日期:
2026-04-07 UTC
国别 :
美国 (US)
星等 :
--
Orbit Information
数据来源 国际轨道数据
星历时间: 2026-09-05T13:12:32+0800
6小时前
查看轨道信息
半长轴: 6867.868km
偏心率: 0.003607
轨道倾角: 60.020°
近地点辐角 80.720°
升交点赤经 230.804°
平近点角 279.796°
近地点: 464.958km
远地点: 514.504km
周期: 94.404分钟
每日圈数: 15.253515
Detailed Information
使用方式:
暂无
2D Orbit Map
3D Orbit Map
Orbit Altitude Analysis Chart
Orbit Inclination Analysis Chart
Orbit Comprehensive Analysis Chart
View Comprehensive Chart
Conjunction Data List
Event ID Objects TCA Miss Dist (km) Collision Risk Probability Collision Risk Index (CRI) Action
CDM_260903-081406-648006-863022
STPSAT-7 (68630)
2026-09-03T
08:14:37+0000
0.675 km
远距离
7.838059E-5 中风险 0.73
CDM_260905-140106-837806-863022
STPSAT-7 (68630)
2026-09-05T
14:01:10+0000
1.078 km
极远距离
1.080772E-5 中风险 0.56
CDM_260905-040105-365406-863022
STPSAT-7 (68630)
2026-09-05T
04:01:10+0000
1.638 km
极远距离
4.475198E-6 低风险 0.48
CDM_260905-140106-837706-863022
STPSAT-7 (68630)
2026-09-05T
14:01:10+0000
1.532 km
极远距离
3.338184E-6 低风险 0.45
CDM_260903-081306-250306-863022
STPSAT-7 (68630)
2026-09-03T
08:13:35+0000
1.958 km
极远距离
2.471168E-6 低风险 0.43
CDM_260905-142706-329306-863023
OBJECT C (63293)
STPSAT-7 (68630)
2026-09-05T
14:27:16+0000
2.422 km
极远距离
1.856878E-6 低风险 0.4
CDM_260906-064406-863006-943122
STPSAT-7 (68630)
2026-09-06T
06:44:24+0000
2.421 km
极远距离
1.722569E-6 低风险 0.4
CDM_260907-220306-774006-863021
STPSAT-7 (68630)
2026-09-07T
22:03:15+0000
2.528 km
极远距离
1.409696E-6 低风险 0.38
CDM_260906-224805-951606-863022
STPSAT-7 (68630)
2026-09-06T
22:48:19+0000
2.721 km
极远距离
1.322695E-6 低风险 0.37
CDM_260902-031706-656706-863021
STPSAT-7 (68630)
2026-09-02T
03:17:38+0000
2.843 km
极远距离
1.266146E-6 低风险 0.37